• Join FlightAware (Why Join?)
  • Login
  • US Flag 
12:25AM EST


 

Airport Tracker/Info


-or-


 

Live Flight TrackerFlight Track Log ✈ UPS1121 ✈ 07-May-2013 ✈ KBDL - KPHL

Flight Track Log - Related Links

Times and Time Zones

All times are in EDT time to prevent confusion due to time zone crossing. See the UPS1121 flight status page for this flight to view local times or setup timezone preferences in your user account.

Time Position Orientation Groundspeed Altitude Reporting Facility
EDT Latitude Longitude Course Direction KTS MPH feet Rate Location/Type
09:59PM 41.9292 -72.7053 222° Southwest 166 191 1,600  Level Boston Center
10:00PM 41.8789 -72.7664 222° Southwest 195 224 5,100 2,955 Climbing Boston Center
10:01PM 41.8186 -72.7214 151° Southeast 191 220 8,200 2,322 Climbing Boston Center
10:06PM 41.3370 -72.6560 151° Southeast 383 441 20,000 1,967 Climbing FlightAware
10:07PM 41.2760 -72.6770 195° South 381 438 20,000  Level FlightAware
10:08PM 41.1940 -72.7060 195° South 381 438 20,000  Level FlightAware
10:08PM 41.1240 -72.7310 195° South 377 434 20,000  Level FlightAware
10:09PM 41.0490 -72.7570 195° South 354 407 20,000  Level FlightAware
10:10PM 40.9860 -72.7800 195° South 345 397 20,000  Level FlightAware
10:10PM 40.9563 -72.7902 195° South 347 399 20,000  Level FlightAware ADS-B
10:11PM 40.9034 -72.8188 202° Southwest 348 400 20,000  Level FlightAware ADS-B
10:11PM 40.8586 -72.8520 209° Southwest 350 403 20,000  Level FlightAware ADS-B
10:12PM 40.8162 -72.8832 209° Southwest 350 403 20,000  Level FlightAware ADS-B
10:12PM 40.7693 -72.9178 209° Southwest 369 425 20,000  Level FlightAware ADS-B
10:13PM 40.7233 -72.9514 209° Southwest 374 430 20,000  Level FlightAware ADS-B
10:13PM 40.6776 -72.9849 209° Southwest 374 430 20,000  Level FlightAware ADS-B
10:14PM 40.6318 -73.0185 209° Southwest 376 433 20,000  Level FlightAware ADS-B
10:14PM 40.5865 -73.0516 209° Southwest 372 428 20,000  Level FlightAware ADS-B
10:15PM 40.5409 -73.0847 209° Southwest 369 425 20,000  Level FlightAware ADS-B
10:15PM 40.4959 -73.1173 209° Southwest 367 422 20,000  Level FlightAware ADS-B
10:16PM 40.4508 -73.1499 209° Southwest 365 420 20,000  Level FlightAware ADS-B
10:16PM 40.4047 -73.1831 209° Southwest 364 419 20,000  Level FlightAware ADS-B
10:17PM 40.3579 -73.2170 209° Southwest 364 419 20,000  Level FlightAware ADS-B
10:17PM 40.3087 -73.2524 209° Southwest 365 420 20,000  Level FlightAware ADS-B
10:18PM 40.2640 -73.2846 209° Southwest 374 430 20,000  Level FlightAware ADS-B
10:18PM 40.2180 -73.3177 209° Southwest 381 438 20,000  Level FlightAware ADS-B
10:19PM 40.1711 -73.3513 209° Southwest 382 440 20,000  Level FlightAware ADS-B
10:19PM 40.1244 -73.3847 209° Southwest 380 437 20,000  Level FlightAware ADS-B
10:20PM 40.0770 -73.4185 209° Southwest 379 436 20,000  Level FlightAware ADS-B
10:21PM 40.0276 -73.4536 209° Southwest 379 436 20,000  Level FlightAware ADS-B
10:21PM 39.9806 -73.4868 208° Southwest 377 434 20,000  Level FlightAware ADS-B
10:22PM 39.9344 -73.5197 209° Southwest 376 433 20,000  Level FlightAware ADS-B
10:22PM 39.9207 -73.5304 211° Southwest 377 434 20,000  Level FlightAware ADS-B
10:22PM 39.9035 -73.5469 216° Southwest 380 437 20,000  Level FlightAware ADS-B
10:22PM 39.8946 -73.5573 222° Southwest 381 438 20,000  Level FlightAware ADS-B
10:22PM 39.8680 -73.5956 228° Southwest 383 441 20,000  Level FlightAware ADS-B
10:23PM 39.8347 -73.6490 231° Southwest 380 437 20,000  Level FlightAware ADS-B
10:23PM 39.8014 -73.7023 231° Southwest 379 436 20,000  Level FlightAware ADS-B
10:24PM 39.7675 -73.7561 231° Southwest 377 434 20,000  Level FlightAware ADS-B
10:24PM 39.7314 -73.8131 231° Southwest 376 433 20,000 -381 Level FlightAware ADS-B
10:25PM 39.6982 -73.8655 231° Southwest 372 428 19,600 -1,385 Descending FlightAware ADS-B
10:26PM 39.6601 -73.9253 230° Southwest 364 419 18,500 -2,215 Descending FlightAware ADS-B
10:26PM 39.6282 -73.9752 230° Southwest 359 413 17,200 -2,262 Descending FlightAware ADS-B
10:27PM 39.5965 -74.0248 230° Southwest 352 405 16,200 -1,967 Descending FlightAware ADS-B
10:27PM 39.5654 -74.0735 230° Southwest 348 400 15,200 -2,069 Descending FlightAware ADS-B
10:27PM 39.5379 -74.1189 232° Southwest 348 400 14,200 -2,057 Descending FlightAware ADS-B
10:28PM 39.5323 -74.1335 244° Southwest 351 404 14,000 -947 Descending FlightAware ADS-B
10:28PM 39.5270 -74.1562 253° West 356 410 13,900 -240 Descending FlightAware ADS-B
10:28PM 39.5253 -74.1858 266° West 361 415 13,900 -955 Level FlightAware ADS-B
10:29PM 39.5262 -74.2522 271° West 360 414 13,200 -2,066 Descending FlightAware ADS-B
10:29PM 39.5277 -74.3183 272° West 368 423 11,800 -2,262 Descending FlightAware ADS-B
10:30PM 39.5286 -74.3853 271° West 356 410 10,900 -1,279 Descending FlightAware ADS-B
10:30PM 39.5293 -74.4479 271° West 334 384 10,500 -828 Descending FlightAware ADS-B
10:31PM 39.5299 -74.5023 271° West 314 361 10,100 -933 Descending FlightAware ADS-B
10:31PM 39.5303 -74.5328 271° West 308 354 9,800 -1,091 Descending FlightAware ADS-B
10:31PM 39.5308 -74.5632 271° West 304 350 9,500 -1,313 Descending FlightAware ADS-B
10:31PM 39.5313 -74.5913 271° West 303 349 9,100 -1,125 Descending FlightAware ADS-B
10:32PM 39.5320 -74.6203 272° West 303 349 8,900 -462 Descending FlightAware ADS-B
10:32PM 39.5327 -74.6400 273° West 304 350 8,900  Level FlightAware ADS-B
10:32PM 39.5336 -74.6483 278° West 305 351 8,900  Level FlightAware ADS-B
10:32PM 39.5346 -74.6541 283° West 307 353 8,900  Level FlightAware ADS-B
10:32PM 39.5368 -74.6631 288° West 307 353 8,900  Level FlightAware ADS-B
10:32PM 39.5449 -74.6888 292° West 309 356 8,900  Level FlightAware ADS-B
10:32PM 39.5532 -74.7144 293° West 308 354 8,900  Level FlightAware ADS-B
10:33PM 39.5620 -74.7414 293° West 312 359 8,900  Level FlightAware ADS-B
10:33PM 39.5744 -74.7796 293° West 314 361 8,900  Level FlightAware ADS-B
10:33PM 39.5830 -74.8058 293° West 312 359 8,900 -194 Level FlightAware ADS-B
10:34PM 39.5917 -74.8323 293° West 309 356 8,800 -774 Descending FlightAware ADS-B
10:34PM 39.6001 -74.8577 293° West 308 354 8,500 -1,355 Descending FlightAware ADS-B
10:34PM 39.6091 -74.8843 294° West 307 353 8,100 -1,500 Descending FlightAware ADS-B
10:34PM 39.6186 -74.9125 294° West 307 353 7,700 -1,500 Descending FlightAware ADS-B
10:35PM 39.6274 -74.9393 293° West 306 352 7,300 -1,355 Descending FlightAware ADS-B
10:35PM 39.6352 -74.9636 293° West 303 349 7,000 -1,111 Descending FlightAware ADS-B
10:35PM 39.6418 -74.9844 292° West 300 345 6,800 -1,263 Descending FlightAware ADS-B
10:35PM 39.6450 -74.9962 289° West 297 342 6,600 -1,364 Descending FlightAware ADS-B
10:36PM 39.6502 -75.0223 285° West 293 337 6,300 -1,297 Descending FlightAware ADS-B
10:36PM 39.6573 -75.0602 284° West 290 334 5,800 -1,200 Descending FlightAware ADS-B
10:36PM 39.6629 -75.0911 283° West 292 336 5,500 -1,059 Descending FlightAware ADS-B
10:36PM 39.6677 -75.1176 283° West 293 337 5,200 -968 Descending FlightAware ADS-B
10:37PM 39.6725 -75.1442 283° West 293 337 5,000 -800 Descending FlightAware ADS-B
10:37PM 39.6772 -75.1703 283° West 293 337 4,800 -968 Descending FlightAware ADS-B
10:37PM 39.6820 -75.1971 283° West 293 337 4,500 -857 Descending FlightAware ADS-B
10:37PM 39.6857 -75.2184 283° West 293 337 4,400 -643 Descending FlightAware ADS-B
10:38PM 39.6903 -75.2448 283° West 292 336 4,200 -774 Descending FlightAware ADS-B
10:38PM 39.6947 -75.2711 282° West 290 334 4,000 -581 Descending FlightAware ADS-B
10:38PM 39.6991 -75.2975 282° West 288 331 3,900 -194 Descending FlightAware ADS-B
10:38PM 39.7036 -75.3241 282° West 291 335 3,900  Level FlightAware ADS-B
10:39PM 39.7081 -75.3500 283° West 292 336 3,900  Level FlightAware ADS-B
10:39PM 39.7124 -75.3757 282° West 291 335 3,900  Level FlightAware ADS-B
10:39PM 39.7169 -75.4023 282° West 288 331 3,900 -600 Level FlightAware ADS-B
10:39PM 39.7214 -75.4279 283° West 284 327 3,600 -1,355 Descending FlightAware ADS-B
10:40PM 39.7260 -75.4535 283° West 284 327 3,200 -1,355 Descending FlightAware ADS-B
10:40PM 39.7306 -75.4799 283° West 285 328 2,900 -581 Descending FlightAware ADS-B
10:40PM 39.7348 -75.5057 282° West 273 314 2,900  Level FlightAware ADS-B
10:40PM 39.7384 -75.5274 282° West 260 299 2,900  Level FlightAware ADS-B
10:41PM 39.7421 -75.5486 283° West 248 285 2,900  Level FlightAware ADS-B
10:41PM 39.7430 -75.5529 285° West 245 282 2,900  Level FlightAware ADS-B
10:41PM 39.7441 -75.5577 287° West 244 281 2,900  Level FlightAware ADS-B
10:41PM 39.7460 -75.5630 295° West 241 277 2,900  Level FlightAware ADS-B
10:41PM 39.7491 -75.5692 303° West 237 273 2,900  Level FlightAware ADS-B
10:41PM 39.7513 -75.5724 312° West 234 269 2,900  Level FlightAware ADS-B
10:41PM 39.7545 -75.5761 318° Northwest 232 267 2,900  Level FlightAware ADS-B
10:41PM 39.7589 -75.5802 324° Northwest 231 266 2,900  Level FlightAware ADS-B
10:41PM 39.7659 -75.5861 327° Northwest 230 265 2,900  Level FlightAware ADS-B
10:41PM 39.7691 -75.5884 331° Northwest 228 262 2,900  Level FlightAware ADS-B
10:41PM 39.7723 -75.5902 337° Northwest 225 259 2,900  Level FlightAware ADS-B
10:41PM 39.7769 -75.5919 344° North 220 253 2,900  Level FlightAware ADS-B
10:42PM 39.7801 -75.5923 355° North 216 249 2,900  Level FlightAware ADS-B
10:42PM 39.7837 -75.5922 North 212 244 2,900  Level FlightAware ADS-B
10:42PM 39.7870 -75.5916 North 208 239 2,900  Level FlightAware ADS-B
10:42PM 39.7906 -75.5900 19° North 203 234 2,900  Level FlightAware ADS-B
10:42PM 39.7933 -75.5883 26° Northeast 200 230 2,900  Level FlightAware ADS-B
10:42PM 39.7958 -75.5859 36° Northeast 195 224 2,900  Level FlightAware ADS-B
10:42PM 39.7987 -75.5818 47° Northeast 190 219 2,900  Level FlightAware ADS-B
10:42PM 39.8003 -75.5785 58° Northeast 187 215 2,900  Level FlightAware ADS-B
10:42PM 39.8016 -75.5737 71° East 184 212 2,900  Level FlightAware ADS-B
10:42PM 39.8023 -75.5690 79° East 185 213 2,900  Level FlightAware ADS-B
10:42PM 39.8031 -75.5644 77° East 188 216 2,900  Level FlightAware ADS-B
10:42PM 39.8048 -75.5560 75° East 190 219 2,900  Level FlightAware ADS-B
10:42PM 39.8065 -75.5491 72° East 188 216 2,900  Level FlightAware ADS-B
10:43PM 39.8093 -75.5347 76° East 181 208 2,900  Level FlightAware ADS-B
10:43PM 39.8118 -75.5200 78° East 182 209 2,900  Level FlightAware ADS-B
10:43PM 39.8151 -75.5034 75° East 183 211 2,900  Level FlightAware ADS-B
10:43PM 39.8184 -75.4869 75° East 176 203 2,900  Level FlightAware ADS-B
10:44PM 39.8215 -75.4718 75° East 163 188 2,900 -194 Level FlightAware ADS-B
10:44PM 39.8243 -75.4576 76° East 163 188 2,800 -800 Descending FlightAware ADS-B
10:44PM 39.8273 -75.4431 75° East 167 192 2,500 -960 Descending FlightAware ADS-B
10:44PM 39.8292 -75.4333 76° East 168 193 2,400 -720 Descending FlightAware ADS-B
10:45PM 39.8321 -75.4187 75° East 169 194 2,200 -800 Descending FlightAware ADS-B
10:45PM 39.8351 -75.4041 75° East 160 184 2,000 -923 Descending FlightAware ADS-B
10:45PM 39.8370 -75.3942 76° East 147 169 1,800 -889 Descending FlightAware ADS-B
10:45PM 39.8395 -75.3817 75° East 128 147 1,600 -667 Descending FlightAware ADS-B
10:45PM 39.8411 -75.3740 75° East 114 131 1,500 -545 Descending FlightAware ADS-B
10:46PM 39.8424 -75.3675 75° East 102 117 1,400 -462 Descending FlightAware ADS-B
10:46PM 39.8442 -75.3588 75° East 99 114 1,300 -600 Descending FlightAware ADS-B
10:46PM 39.8459 -75.3500 76° East 100 115 1,100 -600 Descending FlightAware ADS-B
10:46PM 39.8476 -75.3411 76° East 101 116 1,000 -480 Descending FlightAware ADS-B
10:47PM 39.8488 -75.3352 75° East 103 119 900 -667 Descending FlightAware ADS-B
10:47PM 39.8498 -75.3306 74° East 102 117 800 -750 Descending FlightAware ADS-B